Tracking 29892 objects as of 21-Nov-2024
HD Live streaming from Space Station
objects crossing your sky now

DMSP 5D-2 F13 DEB

Track DMSP 5D-2 F13 DEB now!
10-day predictions


NORAD ID: 40680
Int'l Code: 1995-015FU
Perigee: 414.2 km
Apogee: 448.0 km
Inclination: 98.7 °
Period: 93.1 minutes
Semi major axis: 6802 km
RCS: Unknown
Launch date: March 24, 1995
Source: United States (US)
Launch site: AIR FORCE WESTERN TEST RANGE (AFWTR)

Note: This is SATELLITE DEBRIS
Your satellite tracking list
Your tracking list is empty




NASA's NSSDC Master Catalog

Two Line Element Set (TLE):
1 40680U 95015FU  24324.21813942  .01802628  00000-0  30888-1 0  9998
2 40680  98.7207  51.5548 0024829 315.0787  44.8449 15.47531272500574
Source of the keplerian elements: AFSPC